Date,TemperatureHighF,TemperatureAvgF,TemperatureLowF,DewpointHighF,DewpointAvgF,DewpointLowF,HumidityHigh,HumidityAvg,HumidityLow,PressureMaxIn,PressureMinIn,WindSpeedMaxMPH,WindSpeedAvgMPH,GustSpeedMaxMPH,PrecipitationSumIn
2012-1-1,95.2,83.4,76.8,81.3,75.0,71.3,98,77,53,29.86,29.73,5,1,12,0.20
2012-1-2,96.3,84.2,74.1,77.2,72.4,68.0,90,69,49,29.88,29.78,6,1,13,0.00
2012-1-3,94.5,80.7,71.1,77.1,72.2,69.2,97,77,50,29.90,29.82,6,1,13,0.00
2012-1-4,98.8,82.6,72.0,79.9,74.1,71.1,99,78,48,29.92,29.78,4,1,13,0.00
2012-1-5,99.7,84.5,71.8,78.2,72.4,64.9,99,71,40,29.88,29.75,6,1,11,0.00
2012-1-6,96.3,81.8,68.0,76.7,72.2,66.4,99,75,51,29.85,29.76,5,1,9,0.00
2012-1-7,97.7,84.0,71.4,78.6,75.2,70.9,99,77,54,29.86,29.77,4,1,9,0.00
2012-1-8,97.7,84.6,73.2,80.6,76.2,72.7,99,78,52,29.87,29.75,5,1,13,0.00
2012-1-9,95.9,84.0,73.9,79.9,76.6,73.6,99,80,58,29.83,29.70,5,1,11,0.00
2012-1-10,96.8,85.5,73.9,81.1,77.4,73.6,99,79,59,29.78,29.67,5,1,11,0.00
2012-1-11,96.6,85.4,74.3,79.4,76.4,72.8,99,77,50,29.78,29.67,5,1,13,0.00
2012-1-12,95.9,84.8,73.9,80.4,76.6,73.2,99,78,59,29.80,29.67,5,1,10,0.00
2012-1-13,100.0,86.9,74.1,80.1,77.5,73.8,99,76,54,29.79,29.69,4,1,10,0.00
2012-1-14,96.3,85.7,76.6,83.4,77.4,75.0,99,78,54,29.76,29.65,5,1,10,0.33
2012-1-15,97.0,85.4,76.1,83.6,79.6,75.8,99,84,61,29.74,29.59,5,1,13,1.09
2012-1-16,99.7,81.8,73.8,82.0,76.8,73.5,99,86,55,29.78,29.66,4,0,10,0.40
2012-1-17,98.4,84.9,74.8,82.1,78.3,74.2,99,82,54,29.82,29.68,5,1,11,0.08
2012-1-18,95.4,83.0,76.6,82.4,78.6,76.3,99,88,63,29.82,29.69,5,1,11,0.04
2012-1-19,99.9,84.1,74.3,82.3,77.8,73.8,99,83,55,29.83,29.67,3,0,7,0.66
2012-1-20,101.7,83.6,73.4,83.1,78.5,72.9,99,86,55,29.77,29.64,4,1,11,1.17
2012-1-21,90.3,81.0,75.2,85.0,79.4,74.7,99,95,77,29.75,29.64,4,0,8,1.43
2012-1-22,99.3,85.0,77.0,84.8,80.0,76.7,99,87,61,29.76,29.66,4,1,13,0.07
2012-1-23,99.5,85.0,75.6,82.5,79.1,75.1,99,84,58,29.74,29.61,4,0,8,0.07
2012-1-24,98.4,83.2,74.7,83.5,78.9,74.4,99,88,61,29.71,29.56,4,1,8,1.69
2012-1-25,93.6,81.2,73.8,84.7,78.5,73.5,99,93,70,29.66,29.53,4,0,9,0.48
2012-1-26,98.2,82.8,76.1,82.5,78.7,75.8,99,89,59,29.69,29.57,4,0,8,0.12
2012-1-27,97.2,86.4,76.8,85.6,80.2,75.7,99,83,66,29.68,29.55,5,1,11,0.01
2012-1-28,99.9,86.2,77.5,85.9,81.1,77.2,99,86,59,29.60,29.47,5,1,11,0.61
2012-1-29,104.5,87.8,76.3,86.2,81.5,75.8,99,84,49,29.61,29.47,6,1,12,0.26
2012-1-30,104.5,87.2,80.1,85.6,81.5,79.8,99,85,54,29.60,29.53,4,0,9,0.00
2012-1-31,99.0,87.3,78.4,86.3,81.8,78.1,99,85,61,29.58,29.47,5,1,13,0.01
2012-2-1,96.1,83.8,78.1,86.2,81.0,77.8,99,92,68,29.53,29.40,4,0,9,0.84
2012-2-2,97.2,83.4,77.4,84.3,80.3,77.1,99,91,66,29.45,29.30,3,0,6,0.04
2012-2-3,97.3,80.8,73.8,85.7,79.3,73.5,99,96,69,29.47,29.26,4,0,10,3.51
2012-2-4,87.6,80.9,73.9,74.8,71.1,66.1,99,73,57,29.57,29.39,8,1,15,0.02
2012-2-5,103.1,86.0,73.4,84.1,78.0,70.2,99,79,49,29.60,29.44,5,0,10,0.00
2012-2-6,105.1,87.2,78.1,87.6,80.9,77.3,99,84,50,29.57,29.46,5,1,12,0.00
2012-2-7,104.4,88.1,77.7,87.3,80.2,76.1,99,79,53,29.61,29.48,4,1,8,0.00
2012-2-8,102.6,88.5,77.4,84.8,80.3,74.8,99,78,56,29.71,29.55,4,1,9,0.05
2012-2-9,101.5,87.6,76.1,84.8,79.8,75.8,99,80,56,29.74,29.61,4,1,13,0.07
2012-2-10,103.1,87.1,76.3,84.0,79.2,75.8,99,80,43,29.79,29.67,5,1,10,0.00
2012-2-11,100.2,87.0,76.3,83.5,79.6,75.8,99,81,54,29.81,29.69,5,1,11,0.00
2012-2-12,84.6,81.8,79.0,79.2,78.2,76.9,99,89,78,29.87,29.81,2,0,2,0.00
2012-2-13,98.8,86.3,75.0,83.0,77.9,73.7,99,78,57,29.88,29.77,6,1,13,0.00
2012-2-14,99.5,86.8,74.5,82.3,78.0,74.0,99,77,55,29.86,29.74,5,1,12,0.00
2012-2-15,100.6,87.3,75.7,81.6,77.7,75.0,99,76,49,29.84,29.73,5,1,13,0.00
2012-2-16,96.8,83.5,75.2,82.0,78.6,74.9,99,86,60,29.85,29.74,7,1,18,1.24
2012-2-17,98.4,85.0,75.6,82.1,77.5,74.9,99,80,55,29.84,29.74,4,1,11,0.11
2012-2-18,99.1,85.5,78.1,81.3,78.2,75.8,96,80,53,29.86,29.75,8,1,24,0.00
2012-2-19,98.2,83.8,74.1,83.4,79.0,73.8,99,87,60,29.87,29.75,7,1,15,0.70
2012-2-20,98.1,82.9,73.4,84.7,77.8,73.1,99,86,60,29.87,29.74,4,0,7,0.50
2012-2-21,92.1,79.7,75.4,81.5,77.9,75.1,99,95,71,29.81,29.72,2,0,6,0.06
2012-2-22,100.2,85.9,74.3,83.9,79.0,74.0,99,82,54,29.80,29.69,4,1,8,0.01
2012-2-23,98.2,84.8,76.6,83.7,80.1,76.3,99,87,61,29.84,29.73,4,0,8,0.00
2012-2-24,97.7,83.1,75.4,82.8,78.5,75.1,99,87,61,29.82,29.73,2,0,8,0.06
2012-2-25,99.7,85.8,76.8,84.4,80.0,76.5,99,85,61,29.80,29.71,2,1,7,0.17
2012-2-26,92.1,81.7,76.5,83.2,79.3,76.2,99,93,75,29.80,29.70,3,0,6,0.01
2012-2-27,84.4,79.1,76.5,82.1,78.6,76.2,99,99,92,29.75,29.67,2,0,6,0.48
2012-2-28,96.8,82.5,75.6,85.4,79.5,75.3,99,92,66,29.76,29.65,2,0,7,0.81
2012-2-29,93.4,81.6,75.0,86.0,79.9,74.7,99,95,74,29.77,29.68,2,1,6,0.74
2012-3-1,99.0,86.6,75.9,85.3,80.8,75.6,99,85,63,29.76,29.64,2,0,6,0.45
2012-3-2,97.9,82.6,76.8,86.4,80.1,76.5,99,93,66,29.75,29.65,2,0,7,0.33
2012-3-3,98.4,85.2,75.6,84.9,80.1,75.3,99,86,64,29.79,29.68,2,0,14,0.39
2012-3-4,100.6,87.2,76.3,84.3,80.4,76.0,99,82,58,29.78,29.69,2,0,8,0.00
2012-3-5,96.6,83.6,74.7,85.2,79.7,74.4,99,89,66,29.77,29.67,2,0,6,0.02
2012-3-6,100.0,81.5,76.5,86.0,78.8,76.2,99,93,63,29.73,29.67,3,0,6,0.01
2012-3-10,78.1,77.7,77.5,77.8,77.4,77.2,99,99,99,29.75,29.75,2,1,4,0.00
2012-3-11,91.8,78.5,74.1,84.0,77.5,73.8,99,97,74,29.88,29.78,6,2,7,0.30
2012-3-12,91.0,79.1,74.3,85.0,78.0,74.1,99,96,78,29.87,29.78,8,2,8,1.52
2012-3-13,82.6,76.8,74.7,82.4,76.6,74.4,99,99,99,29.90,29.79,7,2,8,2.07
2012-3-14,96.6,81.6,74.8,84.5,78.7,74.6,99,92,65,29.87,29.73,8,1,8,0.27
2012-3-15,94.6,80.3,74.7,86.0,78.4,74.4,99,94,69,29.80,29.66,8,1,8,1.11
2012-3-16,96.3,81.1,75.4,85.1,78.9,75.1,99,94,68,29.74,29.61,8,1,8,0.83
2012-3-17,88.0,79.6,75.9,86.5,79.3,75.7,99,99,92,29.70,29.58,10,2,10,0.84
2012-3-18,89.4,79.8,76.3,86.3,79.5,76.0,99,99,87,29.71,29.59,16,3,16,4.74
2012-3-19,86.0,81.0,77.5,85.4,80.7,75.9,99,99,98,29.66,29.53,16,5,16,4.02
2012-3-20,88.3,81.0,77.0,86.9,80.7,76.6,99,99,92,29.61,29.46,14,4,14,0.91
2012-3-21,99.1,86.5,77.7,86.6,81.6,77.5,99,86,59,29.60,29.47,14,3,14,0.00
2012-3-22,102.4,88.1,76.3,83.3,79.7,76.0,99,79,47,29.66,29.51,14,3,14,0.00
2012-3-23,99.3,87.3,77.7,85.6,80.8,75.9,99,82,58,29.74,29.61,10,2,10,0.00
2012-3-24,99.0,85.3,75.7,85.1,80.1,75.5,99,86,61,29.81,29.69,8,2,8,0.14
2012-3-25,99.7,82.9,75.0,85.8,79.6,74.8,99,90,62,29.84,29.74,9,2,9,0.01
2012-3-26,77.7,76.8,73.6,77.5,76.6,73.2,99,99,99,29.90,29.77,11,2,11,3.99
2012-3-27,88.9,78.6,73.9,83.5,77.6,73.7,99,96,79,29.93,29.83,10,2,10,0.11
2012-3-28,91.8,79.6,72.7,79.3,75.0,72.2,99,87,62,29.94,29.80,9,3,9,0.08
2012-3-29,96.8,83.5,73.2,78.7,72.8,65.9,99,72,49,29.90,29.77,9,3,10,0.00
2012-3-30,97.3,81.2,69.3,79.5,72.8,67.8,99,78,50,29.90,29.77,11,2,11,0.00
2012-3-31,97.9,81.8,67.8,77.8,69.8,63.3,99,71,41,29.94,29.81,8,2,8,0.05
2012-4-1,97.7,80.7,66.9,77.0,69.9,62.5,99,73,44,29.96,29.82,11,2,11,0.00
2012-4-2,95.5,79.7,66.9,77.7,71.5,65.4,99,78,52,29.98,29.87,10,2,10,0.00
2012-4-3,69.4,68.7,67.5,69.2,68.3,66.2,99,99,95,29.97,29.93,2,0,2,0.00
2012-4-4,98.1,79.5,65.7,73.5,66.2,61.6,88,67,37,29.97,29.84,7,1,7,0.00
2012-4-5,97.5,79.9,66.6,76.7,71.2,64.3,99,78,51,29.99,29.87,8,1,8,0.00
2012-4-6,92.8,78.1,69.3,77.9,73.7,69.0,99,88,59,29.99,29.88,4,1,4,0.02
2012-4-7,95.9,78.5,69.1,78.4,73.4,68.8,99,86,55,29.97,29.88,6,1,6,0.02
2012-4-8,95.9,81.7,71.4,76.0,72.8,69.4,99,77,49,29.97,29.87,12,2,12,0.00
2012-4-9,96.4,81.0,68.0,77.4,72.2,67.7,99,78,48,29.98,29.86,10,2,10,0.00
2012-4-10,96.1,80.9,67.6,80.0,72.9,67.4,99,79,50,29.99,29.89,11,2,11,0.01
2012-4-11,88.0,78.7,73.4,79.4,75.2,72.4,99,89,68,29.99,29.90,9,2,9,0.74
2012-4-12,81.7,74.5,72.5,79.7,74.2,72.2,99,99,92,30.03,29.92,13,2,13,1.88
2012-4-13,88.7,77.4,72.1,79.9,75.3,71.9,99,94,75,30.03,29.95,13,2,13,0.19
2012-4-14,87.3,77.7,73.4,82.3,76.5,73.2,99,96,79,30.00,29.89,10,2,10,0.12
2012-4-15,87.1,78.2,74.8,81.4,76.8,74.4,99,95,80,29.95,29.85,9,2,9,1.41
2012-4-16,80.8,75.9,73.2,80.2,75.7,73.0,99,99,97,29.94,29.83,6,2,6,0.71
2012-4-17,93.0,78.9,73.4,81.1,76.0,73.2,99,91,63,29.89,29.78,5,1,5,0.01
2012-4-18,90.5,78.2,72.5,79.2,75.6,72.2,99,92,68,29.89,29.78,5,1,5,0.00
2012-4-19,75.9,72.5,71.1,74.8,72.2,70.8,99,99,96,29.87,29.82,2,0,2,0.00
2012-4-20,94.3,81.2,74.7,81.3,77.3,74.4,99,89,62,29.92,29.82,6,2,6,0.01
2012-4-21,95.0,80.8,70.9,79.4,75.6,70.6,99,86,58,29.91,29.82,5,1,5,0.00
2012-4-22,90.0,78.8,66.9,75.2,71.2,66.6,99,79,59,29.91,29.86,4,1,4,0.00
2012-4-23,95.7,83.1,66.2,79.0,74.5,63.7,99,77,58,29.92,29.79,9,2,9,0.00
2012-4-24,95.7,81.4,64.9,83.2,72.4,64.7,99,77,53,29.90,29.81,11,2,11,0.00
2012-4-25,95.7,78.5,66.9,79.4,72.7,66.7,99,84,55,29.92,29.82,9,1,9,0.02
2012-4-26,95.2,79.7,63.1,82.4,75.4,62.9,99,88,58,29.95,29.86,7,1,7,0.02
2012-4-27,94.6,80.6,67.3,81.7,76.8,67.0,99,89,65,29.93,29.83,8,1,8,0.00
2012-4-28,103.8,79.7,73.9,93.1,76.2,67.3,99,90,67,29.93,29.82,8,1,8,0.00
2012-4-29,97.0,80.2,73.8,87.4,76.2,65.9,99,88,63,29.92,29.82,10,2,10,0.00
2012-4-30,85.5,78.7,76.1,80.1,76.2,74.3,99,92,75,29.99,29.85,7,2,7,0.08
2012-5-1,90.1,80.3,74.1,79.5,76.5,68.5,99,89,70,30.03,29.91,9,2,9,0.06
2012-5-2,96.8,78.6,72.9,78.9,75.6,65.0,99,91,68,30.00,29.91,16,2,16,0.12
2012-5-3,96.4,80.5,73.0,78.2,74.6,71.6,99,84,59,29.93,29.81,9,2,9,0.00
2012-5-4,93.6,79.8,69.8,77.3,71.8,62.0,99,79,54,29.91,29.81,8,1,8,0.00
2012-5-5,95.7,77.1,64.4,75.3,69.5,64.1,99,79,54,29.93,29.81,9,2,9,0.00
2012-5-6,93.2,77.0,64.9,73.2,68.2,58.1,99,77,47,29.97,29.86,11,2,11,0.00
2012-5-7,93.0,77.3,63.9,74.2,69.6,63.6,99,80,51,29.96,29.84,10,1,10,0.00
2012-5-8,106.3,80.0,71.1,72.8,69.8,58.9,91,73,43,29.99,29.86,11,2,11,0.00
2012-5-9,100.4,79.5,70.3,75.1,71.6,60.2,94,78,54,30.03,29.93,9,2,9,0.00
2012-5-10,92.1,79.1,73.6,76.0,72.8,60.5,94,82,62,30.03,29.92,9,2,9,0.00
2012-5-11,98.1,79.2,72.9,75.8,72.4,60.2,99,81,59,30.01,29.88,10,2,10,0.00
2012-5-12,91.9,76.3,71.6,76.7,73.5,62.8,99,91,68,29.97,29.87,9,1,9,0.13
2012-5-13,90.9,78.8,68.0,77.4,73.9,63.3,99,86,61,29.98,29.87,8,2,8,0.00
2012-5-14,93.2,78.9,69.8,72.9,70.3,61.6,99,77,50,30.01,29.90,8,2,8,0.00
2012-5-15,96.8,77.4,70.3,71.9,68.7,57.5,95,76,55,30.01,29.90,12,2,12,0.00
2012-5-16,95.5,75.4,65.8,69.2,64.1,54.2,94,70,47,29.99,29.88,10,2,10,0.00
2012-5-17,91.4,72.2,63.7,75.7,66.1,57.9,99,82,60,29.97,29.89,8,1,8,0.00
2012-5-18,89.8,75.0,69.3,76.7,72.3,63.6,99,92,64,30.06,29.91,9,2,9,0.31
2012-5-19,87.1,75.3,68.7,75.3,71.0,63.4,99,87,61,30.06,29.93,8,2,8,0.05
2012-5-20,95.9,76.7,70.3,74.2,70.5,61.0,99,82,61,30.01,29.89,9,2,9,0.00
2012-5-21,85.1,72.7,69.6,78.3,72.3,69.4,99,98,78,30.00,29.89,11,2,11,0.97
2012-5-22,88.7,76.9,70.2,76.3,72.9,69.7,99,88,68,30.02,29.93,10,2,10,0.04
2012-5-23,81.5,74.5,71.8,81.3,74.2,66.8,99,99,95,30.03,29.92,7,2,7,0.24
2012-5-24,88.9,78.2,73.8,81.8,76.8,73.5,99,95,76,29.97,29.87,11,1,11,0.44
2012-5-25,75.7,71.6,67.6,75.5,71.1,63.6,99,98,93,30.02,29.83,6,1,6,3.04
2012-5-26,80.6,71.6,67.3,71.1,68.2,61.1,98,89,71,30.04,29.91,7,1,7,0.00
2012-5-27,81.7,71.2,67.3,71.1,67.9,58.4,99,90,68,30.01,29.89,6,1,6,0.02
2012-5-28,81.1,71.7,58.5,62.5,57.9,45.9,78,62,47,30.03,29.91,11,2,11,0.00
2012-5-29,86.0,73.1,64.8,70.4,63.5,55.3,94,72,58,30.02,29.93,8,2,8,0.00
2012-5-30,81.0,73.0,66.6,80.7,71.2,63.2,99,94,80,30.04,29.94,7,2,7,0.00
2012-5-31,80.1,73.6,70.7,76.2,73.0,70.1,99,98,86,29.65,29.52,10,1,10,0.00
2012-6-1,80.1,73.4,71.1,77.6,73.0,70.8,99,98,88,29.58,29.47,5,1,5,0.31
2012-6-2,79.0,73.0,67.1,78.4,72.4,59.5,99,98,90,29.53,29.43,4,1,4,0.26
2012-6-3,91.6,74.9,64.0,78.0,70.2,63.8,99,87,58,29.49,29.36,8,1,8,0.00
2012-6-4,89.1,75.1,65.5,76.1,69.6,65.0,99,85,59,29.53,29.40,10,2,10,0.00
2012-6-5,87.4,71.7,62.8,74.7,67.2,62.5,99,87,58,29.92,29.46,11,1,11,0.00
2012-6-6,85.5,70.1,51.4,69.7,62.5,49.9,99,80,49,29.98,29.82,9,1,9,0.00
2012-6-7,90.3,68.5,56.3,66.1,60.9,56.0,99,80,50,30.03,29.90,9,1,9,0.00
2012-6-8,85.8,68.6,56.5,67.3,61.9,54.9,99,82,50,30.03,29.92,9,1,9,0.00
2012-6-9,90.0,70.7,56.7,70.7,64.0,56.4,99,82,51,30.00,29.89,8,1,8,0.00
2012-6-10,95.4,71.5,59.7,72.1,65.5,50.6,99,84,53,29.97,29.84,8,1,8,0.00
2012-6-11,88.3,71.2,60.6,71.0,62.2,59.0,99,77,42,29.95,29.83,11,1,11,0.00
2012-6-12,94.6,69.2,57.6,66.7,60.5,48.8,99,78,44,29.98,29.87,8,1,8,0.00
2012-6-13,93.6,68.5,56.1,72.5,59.1,48.5,99,77,39,29.99,29.88,9,1,9,0.00
2012-6-14,92.3,68.0,54.9,67.5,60.9,54.6,99,81,47,30.02,29.90,8,1,8,0.00
2012-6-15,99.9,70.9,57.6,70.0,63.1,48.7,99,79,46,30.07,29.94,9,1,9,0.00
2012-6-16,89.1,72.1,59.9,71.6,65.6,52.4,99,82,54,30.07,29.97,11,1,11,0.00
2012-6-17,91.0,73.2,60.1,75.4,66.8,50.7,99,83,53,30.12,29.74,9,1,9,3.04
2012-6-18,84.9,70.9,59.5,70.8,65.4,59.3,99,84,61,30.11,29.99,8,1,8,0.00
2012-6-19,84.2,69.9,58.8,67.4,60.7,53.3,99,75,50,30.09,29.99,8,1,9,0.00
2012-6-20,82.8,67.4,54.0,66.3,59.3,52.8,99,77,54,30.08,29.98,8,1,10,0.00
2012-6-21,89.1,71.6,59.0,69.6,64.4,58.7,99,81,46,30.04,29.92,11,1,11,0.00
2012-6-22,90.9,74.5,63.5,75.9,69.8,63.2,99,87,56,29.97,29.85,8,1,9,0.00
2012-6-23,68.2,67.9,67.8,67.7,67.6,67.6,99,99,99,29.96,29.96,0,0,1,0.00
2012-6-25,84.9,73.5,71.2,72.7,70.7,70.2,98,91,66,30.03,29.92,8,1,8,0.00
2012-6-26,90.0,76.6,71.1,83.7,73.2,61.4,99,90,66,30.02,29.89,6,1,6,0.00
2012-6-27,91.9,75.8,72.1,77.9,73.5,71.8,99,93,62,29.98,29.86,2,1,2,0.05
2012-6-28,90.3,75.8,70.7,77.8,73.1,70.4,99,92,65,29.95,29.81,8,1,8,0.00
2012-6-29,90.5,76.7,70.2,77.8,73.3,69.9,99,90,64,29.91,29.80,8,1,8,0.00
2012-6-30,90.5,77.2,67.5,78.3,72.9,67.0,99,88,63,29.97,29.84,11,1,11,0.00
2012-7-1,91.4,76.5,69.3,74.6,71.8,67.9,99,87,56,30.01,29.89,11,1,11,0.05
2012-7-2,86.4,73.5,62.8,68.6,64.6,61.3,99,76,47,30.00,29.91,11,1,11,0.00
2012-7-3,82.9,72.3,63.3,66.2,63.0,56.8,94,74,54,30.03,29.91,8,1,8,0.00
2012-7-4,79.0,69.4,59.5,60.1,56.0,49.8,95,63,49,30.10,29.99,11,2,11,0.00
2012-7-5,81.9,69.3,59.9,62.6,55.0,48.1,69,61,52,30.09,29.97,8,2,8,0.00
2012-7-6,73.6,69.8,67.8,64.8,62.8,61.6,84,79,69,30.05,29.94,8,3,8,0.00
2012-7-7,81.0,73.9,68.5,70.4,68.9,63.7,94,85,70,30.00,29.92,8,2,8,0.28
2012-7-8,82.4,72.8,61.7,77.7,70.1,60.6,99,92,74,30.03,29.92,7,2,7,0.02
2012-7-9,78.4,71.6,60.8,76.0,71.4,60.5,99,99,97,30.02,29.90,11,2,11,0.24
2012-7-10,86.0,75.5,71.8,81.7,74.7,71.5,99,97,80,29.96,29.85,10,1,10,0.94
2012-7-11,82.2,73.4,71.8,74.5,71.8,62.5,99,95,76,30.01,29.88,8,2,8,0.00
2012-7-12,99.0,79.1,70.7,80.3,74.6,63.6,99,88,63,29.96,29.83,8,1,8,0.00
2012-7-13,91.8,76.2,66.4,80.7,73.9,66.1,99,93,66,29.95,29.85,7,1,7,0.04
2012-7-14,94.8,79.3,73.6,83.2,77.2,73.3,99,94,68,29.94,29.85,9,1,9,0.01
2012-7-15,88.7,75.2,32.0,77.0,72.8,62.3,99,92,70,30.05,29.88,8,1,8,3.00
2012-7-16,89.8,73.1,68.9,74.5,68.1,55.2,95,85,69,30.07,29.96,11,2,11,0.00
2012-7-17,87.1,74.5,68.4,75.3,69.5,55.8,99,85,66,30.03,29.92,8,2,8,0.00
2012-7-18,95.2,75.8,65.3,83.3,71.4,51.5,99,88,62,29.99,29.86,11,2,11,0.00
2012-7-19,90.9,75.3,63.9,76.4,70.5,63.6,99,86,61,29.99,29.85,10,1,10,0.00
2012-7-20,85.3,73.6,65.3,70.8,65.5,60.8,96,77,53,30.08,29.94,9,2,9,0.00
2012-7-21,93.0,69.5,61.3,67.4,57.4,45.2,97,68,41,30.10,29.97,9,2,9,0.00
2012-7-22,82.2,69.8,57.7,64.0,60.3,56.4,99,73,48,30.04,29.93,9,2,9,0.00
2012-7-23,87.3,72.2,66.7,68.8,65.3,53.6,93,80,60,30.06,29.93,11,3,11,0.00
2012-7-24,88.7,72.1,61.3,68.3,65.1,57.2,99,80,56,30.08,29.96,8,2,8,0.00
2012-7-25,89.1,75.0,66.9,70.7,67.5,55.7,97,80,50,30.08,29.95,10,2,10,0.00
2012-7-26,98.1,73.1,60.1,71.7,66.4,59.0,99,82,55,30.03,29.89,9,1,9,0.00
2012-7-27,99.1,73.1,62.4,85.4,67.7,57.3,99,85,55,30.01,29.88,8,1,8,0.00
2012-7-28,81.9,69.8,60.4,67.3,58.6,52.5,99,71,44,30.10,29.98,9,2,9,0.00
2012-7-29,84.9,67.8,55.6,61.3,56.9,44.1,95,71,45,30.12,29.99,9,2,9,0.00
2012-7-30,84.7,68.5,53.4,69.5,59.7,48.1,99,76,51,30.08,29.95,11,1,11,0.00
2012-7-31,88.7,69.4,54.1,69.7,61.7,53.5,99,79,52,30.08,29.93,9,1,9,0.00
2012-8-1,86.4,71.0,60.3,66.7,62.5,57.2,99,77,52,30.09,29.96,11,2,11,0.00
2012-8-2,86.0,69.5,56.7,70.4,60.3,47.3,99,75,44,30.11,29.99,11,2,11,0.00
2012-8-3,96.8,70.0,55.2,67.7,61.8,55.0,99,78,50,30.09,29.98,11,2,11,0.00
2012-8-4,86.9,70.3,57.4,70.4,61.8,57.1,99,78,46,30.09,29.96,11,2,11,0.00
2012-8-5,88.0,69.9,55.8,67.1,61.6,55.5,99,78,48,30.11,29.97,11,2,11,0.00
2012-8-6,88.5,71.8,57.7,67.9,61.9,50.6,99,74,47,30.12,30.01,11,2,11,0.00
2012-8-7,91.9,70.4,56.5,72.6,59.6,54.8,99,71,45,30.15,30.06,10,2,10,0.00
2012-8-8,88.0,73.6,65.5,67.6,64.7,56.1,93,75,48,30.13,30.03,13,2,13,0.00
2012-8-9,90.3,73.0,63.5,72.7,67.7,63.1,99,85,53,30.10,29.95,10,1,10,0.01
2012-8-10,98.6,72.7,59.5,75.6,62.9,50.4,99,75,42,30.05,29.92,9,2,9,0.00
2012-8-11,82.8,68.3,55.0,60.2,50.7,37.9,97,57,33,30.11,29.97,12,2,12,0.00
2012-8-12,84.6,66.0,50.7,65.4,52.0,46.8,96,65,36,30.12,29.99,11,2,11,0.00
2012-8-13,92.3,66.7,51.6,57.9,54.1,50.9,99,69,34,30.15,30.03,11,2,11,0.00
2012-8-14,87.3,70.7,54.5,64.3,58.2,44.6,91,67,43,30.14,30.03,11,2,11,0.00
2012-8-15,83.8,71.7,64.2,72.6,67.8,56.0,99,88,63,30.10,30.00,8,2,8,0.02
2012-8-16,90.0,73.5,61.3,74.3,67.5,60.9,99,83,55,30.07,29.91,11,1,11,0.00
2012-8-17,90.5,74.5,61.5,75.2,68.9,61.1,99,85,57,30.01,29.87,11,2,11,0.00
2012-8-18,89.8,74.9,63.3,74.9,68.9,62.9,99,84,58,30.03,29.89,11,2,11,0.00
2012-8-19,87.8,71.6,60.1,72.1,66.4,59.8,99,85,58,30.06,29.95,8,1,8,0.00
2012-8-20,82.4,72.9,69.1,69.3,67.8,65.2,98,84,63,30.07,29.94,10,2,10,0.00
2012-8-21,84.9,75.6,69.6,76.6,72.4,68.2,99,90,74,30.03,29.91,8,2,8,0.00
2012-8-22,83.3,75.7,71.4,80.1,74.9,71.2,99,97,86,30.01,29.91,7,1,7,0.11
2012-8-23,92.5,79.9,72.1,80.4,75.7,71.7,99,88,61,30.03,29.92,11,2,11,0.02
2012-8-24,92.7,78.9,69.8,79.0,74.5,69.5,99,88,63,30.04,29.95,10,2,10,0.00
2012-8-25,92.7,79.0,68.5,77.9,72.8,68.1,99,83,55,30.04,29.91,11,2,11,0.00
2012-8-26,94.3,78.5,65.3,78.0,71.3,65.0,99,81,51,30.00,29.88,9,2,9,0.00
2012-8-27,92.7,77.6,64.9,76.8,71.8,64.7,99,84,57,30.03,29.90,11,2,11,0.00
2012-8-28,92.1,78.3,67.5,76.3,72.1,67.0,99,83,57,30.06,29.95,13,2,13,0.00
2012-8-29,90.7,77.1,65.5,78.2,71.4,65.2,99,84,61,30.08,29.95,13,2,13,0.02
2012-8-30,91.8,77.4,64.8,77.3,69.8,64.5,99,80,53,30.05,29.90,11,2,11,0.00
2012-8-31,89.8,76.0,63.5,74.3,69.5,63.1,99,82,57,29.99,29.86,11,2,11,0.00
2012-9-1,91.8,77.4,64.8,74.1,70.2,64.5,99,81,54,30.02,29.91,11,2,11,0.00
2012-9-2,90.5,77.0,70.7,73.4,70.3,66.9,99,81,52,30.05,29.94,12,2,12,0.00
2012-9-3,89.2,76.5,66.4,69.4,64.7,61.3,89,69,44,30.06,29.93,15,3,15,0.00
2012-9-4,88.5,75.4,66.9,70.5,67.6,64.5,99,78,53,30.07,29.97,12,2,12,0.00
2012-9-5,80.6,73.0,68.0,73.7,68.8,65.8,99,87,67,30.07,29.97,7,2,7,0.01
2012-9-6,92.3,76.7,64.9,73.9,69.1,64.7,99,80,49,30.01,29.89,8,2,8,0.00
2012-9-7,94.3,76.2,62.1,76.3,69.3,61.8,99,82,53,30.01,29.87,14,1,14,0.00
2012-9-8,92.7,77.5,64.9,77.0,71.3,64.5,99,83,55,30.01,29.90,11,2,11,0.00
2012-9-9,89.1,76.1,70.0,75.5,71.3,67.5,99,86,60,30.06,29.92,11,2,11,0.01
2012-9-10,86.0,74.1,65.3,69.3,67.0,63.4,99,80,57,30.06,29.97,11,2,11,0.00
2012-9-11,83.1,75.8,71.1,76.1,72.1,69.2,99,89,70,30.07,29.95,9,2,9,0.01
2012-9-12,87.3,76.1,70.0,73.8,70.7,68.7,99,84,59,30.06,29.94,9,2,9,0.00
2012-9-13,92.7,77.0,69.6,76.1,71.6,62.9,99,85,58,30.00,29.86,14,2,14,0.01
2012-9-14,98.1,78.4,67.5,78.9,71.6,67.2,99,82,56,29.95,29.84,11,2,11,0.01
2012-9-15,93.4,77.0,62.6,74.1,68.4,52.3,99,78,50,30.02,29.91,11,2,11,0.00
2012-9-16,98.4,76.9,66.0,77.7,70.3,65.6,99,82,54,30.03,29.90,13,2,13,0.00
2012-9-17,93.9,79.0,70.2,79.5,72.9,65.8,99,83,62,29.99,29.82,9,2,9,0.05
2012-9-18,91.8,78.2,69.1,80.5,73.5,66.8,99,87,61,29.99,29.85,10,2,10,0.00
2012-9-19,96.8,77.7,65.8,78.5,72.2,56.9,99,85,60,30.01,29.88,13,2,13,0.00
2012-9-20,103.5,78.8,66.2,78.2,70.7,65.9,99,79,45,30.04,29.87,11,2,11,0.00
2012-9-21,97.7,77.0,53.2,75.8,69.3,53.0,99,80,53,30.05,29.89,10,2,10,0.00
2012-9-22,98.1,76.9,62.6,76.1,70.3,62.3,99,82,57,29.99,29.84,10,2,10,0.00
2012-9-23,98.6,78.4,65.5,86.1,72.9,60.0,99,85,61,29.93,29.78,11,2,11,0.00
2012-9-24,104.5,77.8,65.1,78.6,72.1,56.2,99,85,60,29.92,29.82,10,2,10,0.00
2012-9-25,99.3,77.8,60.6,77.8,71.5,60.4,99,83,59,29.94,29.83,14,2,14,0.00
2012-9-26,99.7,78.9,65.5,83.8,72.6,63.9,99,83,58,29.97,29.83,12,2,12,0.00
2012-9-27,92.5,79.2,68.7,79.8,73.4,62.6,99,84,59,30.01,29.90,14,2,14,0.00
2012-9-28,90.9,76.8,70.2,80.8,73.4,69.9,99,90,61,30.02,29.89,11,1,11,0.27
2012-9-29,95.4,79.3,67.5,75.7,71.2,59.9,99,79,48,30.00,29.86,11,2,11,0.00
2012-9-30,92.1,78.9,72.7,82.8,73.8,63.3,99,85,59,30.02,29.90,9,2,9,0.01
2012-10-1,93.9,78.7,68.5,79.1,72.5,64.3,99,83,54,30.06,29.95,11,2,11,0.01
2012-10-2,100.4,80.2,72.3,79.9,71.6,60.7,97,77,50,30.08,29.97,14,3,14,0.00
2012-10-3,88.7,73.7,70.2,78.4,72.4,66.5,99,96,65,30.09,29.98,13,2,13,0.35
2012-10-4,86.2,76.6,69.8,73.9,70.1,60.0,99,81,61,30.07,29.94,11,3,11,0.02
2012-10-5,99.7,78.8,70.0,72.7,68.8,61.5,94,73,45,30.03,29.94,12,3,12,0.02
2012-10-6,91.4,77.1,63.9,85.2,73.7,63.6,99,90,67,30.01,29.91,10,2,10,0.01
2012-10-7,92.7,79.4,68.4,76.2,72.8,68.1,99,82,56,29.99,29.83,14,2,14,0.00
2012-10-8,91.4,79.2,64.4,77.4,72.2,64.1,99,81,60,29.90,29.75,8,2,8,0.00
2012-10-9,104.9,77.9,64.6,81.4,72.5,54.8,99,85,63,29.89,29.74,10,2,10,0.00
2012-10-10,93.4,82.4,65.8,79.7,76.2,65.6,99,83,60,29.90,29.80,8,2,8,0.00
2012-10-11,96.4,82.2,69.4,89.3,76.8,69.0,99,85,56,29.94,29.82,11,2,11,0.00
2012-10-12,93.6,80.3,69.3,79.1,71.7,65.6,99,77,51,30.01,29.89,12,2,12,0.00
2012-10-13,95.0,80.3,73.9,82.4,69.5,59.5,85,70,49,30.05,29.93,14,3,14,0.00
2012-10-14,98.1,79.6,72.9,73.9,70.7,60.3,92,76,46,30.08,29.96,13,3,13,0.00
2012-10-15,90.3,79.1,69.3,71.3,68.4,57.4,93,72,50,30.09,30.00,14,4,14,0.00
2012-10-16,92.3,80.5,71.4,73.4,68.7,65.3,86,69,47,30.07,29.96,14,3,14,0.00
2012-10-17,96.1,80.5,69.4,74.2,69.9,65.3,99,73,41,30.04,29.91,14,2,14,0.00
2012-10-18,95.2,80.3,69.8,83.4,71.3,63.2,98,76,49,29.98,29.88,12,2,12,0.00
2012-10-19,85.1,76.9,70.5,80.7,74.2,69.9,99,92,75,29.96,29.86,12,2,12,0.07
2012-10-20,92.8,80.7,70.7,74.4,71.2,67.7,95,75,51,29.97,29.86,14,3,14,0.00
2012-10-21,95.5,82.4,69.6,77.8,73.0,69.4,99,76,50,29.93,29.82,13,2,13,0.00
2012-10-22,96.6,83.2,75.4,81.2,77.1,74.2,99,84,60,29.91,29.77,12,2,12,0.00
2012-10-23,93.4,79.3,67.1,79.0,74.0,66.8,99,85,57,29.90,29.78,11,2,11,0.06
2012-10-24,86.2,77.7,73.9,78.5,74.5,71.0,99,90,70,29.96,29.86,12,2,12,0.31
2012-10-25,93.0,79.1,70.9,76.6,72.3,67.2,99,81,56,29.93,29.81,13,2,13,0.00
2012-10-26,92.1,75.4,63.0,75.6,69.3,62.7,99,84,55,29.88,29.75,11,2,11,0.00
2012-10-27,91.6,79.1,65.5,79.1,73.3,65.2,99,84,57,29.86,29.71,11,2,11,0.04
2012-10-28,95.9,81.6,68.7,78.7,74.2,68.5,99,80,54,29.91,29.77,11,2,11,0.00
2012-10-29,94.5,82.1,72.5,78.3,75.3,72.2,99,81,59,29.93,29.81,11,2,11,0.01
2012-10-30,97.2,82.0,71.1,81.2,76.3,70.8,99,84,58,29.93,29.82,12,2,12,0.00
2012-10-31,95.4,83.1,72.9,80.7,76.8,72.6,99,83,59,29.96,29.82,14,3,14,0.00
2012-11-1,95.4,82.7,72.1,81.2,76.2,71.3,99,82,62,29.96,29.79,15,3,15,0.00
2012-11-2,94.3,80.5,66.6,79.3,73.3,66.1,99,81,58,29.89,29.73,11,2,11,0.00
2012-11-3,94.8,80.7,67.3,80.3,74.5,67.0,99,83,61,29.86,29.73,12,2,12,0.00
2012-11-4,96.1,82.6,71.1,80.5,75.7,70.8,99,82,56,29.91,29.79,14,2,14,0.00
2012-11-5,97.7,83.9,74.8,79.9,76.7,73.5,99,81,55,29.95,29.81,11,2,11,0.00
2012-11-6,103.6,81.3,73.2,80.8,75.5,67.2,99,84,55,29.95,29.81,14,2,14,0.15
2012-11-7,104.9,81.8,72.0,78.5,74.9,61.3,99,81,54,29.90,29.76,13,2,13,0.00
2012-11-8,98.8,79.7,69.6,77.3,73.6,63.6,99,83,58,29.88,29.76,13,2,13,0.00
2012-11-9,94.6,78.5,67.5,80.7,73.8,67.2,99,86,62,29.92,29.80,12,2,12,0.00
2012-11-10,91.0,76.7,69.3,83.0,75.4,60.7,99,96,71,29.91,29.82,6,0,6,0.05
2012-11-11,106.3,84.4,70.3,86.3,76.3,62.5,99,79,56,29.92,29.82,11,2,11,0.00
2012-11-12,90.9,81.0,73.4,80.8,77.2,73.2,99,89,67,29.98,29.89,14,3,14,0.12
2012-11-13,88.9,78.8,67.5,78.8,74.5,64.3,99,88,66,29.97,29.87,13,3,13,0.06
2012-11-14,95.4,80.5,71.6,80.4,74.7,65.2,99,84,53,29.96,29.86,14,2,14,0.02
2012-11-15,96.6,80.9,68.9,90.6,74.4,66.5,99,82,55,29.94,29.82,11,2,11,0.01
2012-11-16,95.7,81.6,68.0,81.8,76.1,59.6,99,85,64,29.91,29.75,11,2,11,0.00
2012-11-17,100.0,82.2,71.1,81.1,77.4,70.8,99,86,65,29.84,29.72,11,2,11,0.00
2012-11-18,95.7,83.4,75.6,85.1,79.8,68.7,99,90,68,29.86,29.69,10,2,10,0.00
2012-11-19,98.2,83.0,70.9,85.3,79.7,69.9,99,91,61,29.81,29.72,17,2,17,0.04
2012-11-20,103.1,83.3,72.0,86.6,80.4,63.1,99,91,71,29.83,29.73,10,2,10,0.02
2012-11-21,95.7,86.2,79.5,85.2,82.0,68.5,99,88,70,29.87,29.75,11,3,11,0.00
2012-11-22,98.4,85.5,77.0,84.4,80.3,66.8,99,86,64,29.88,29.76,11,2,11,0.00
2012-11-23,104.2,83.4,72.0,89.7,77.0,63.1,99,83,59,29.93,29.81,11,2,11,0.00
2012-11-24,108.1,82.7,69.8,87.4,75.3,68.7,99,80,59,29.95,29.85,11,2,11,0.00
2012-11-25,97.5,86.7,69.6,80.4,77.4,69.3,99,75,55,29.96,29.83,13,3,13,0.00
2012-11-26,98.4,83.3,76.5,81.0,77.3,66.3,98,83,62,29.92,29.79,12,2,12,0.00
2012-11-27,114.1,84.7,73.2,93.5,75.1,61.7,99,75,50,29.90,29.79,13,3,13,0.00
2012-11-28,97.2,83.3,72.0,84.5,76.1,65.1,99,81,54,29.91,29.78,14,2,14,0.00
2012-11-29,99.0,84.7,72.0,81.9,77.3,71.7,99,81,57,29.89,29.75,14,2,14,0.00
2012-11-30,94.5,80.5,68.0,86.5,79.6,67.7,99,97,80,29.90,29.81,9,1,9,0.27
2012-12-1,96.4,83.6,75.4,84.6,78.1,74.8,99,85,60,29.93,29.83,14,2,14,0.06
2012-12-2,97.0,83.3,72.0,78.1,74.3,70.7,99,77,46,29.92,29.78,16,2,16,0.00
2012-12-3,95.4,82.2,68.5,80.3,75.2,68.3,99,81,60,29.87,29.74,11,2,11,0.00
2012-12-4,95.4,82.8,71.2,80.9,76.8,71.0,99,84,60,29.82,29.68,11,2,11,0.00
2012-12-5,96.8,85.1,73.2,86.4,80.7,73.0,99,87,70,29.78,29.68,14,3,14,0.00
2012-12-6,100.2,87.9,77.2,89.4,84.4,76.9,99,90,71,29.89,29.74,11,3,11,0.00
2012-12-7,99.9,88.5,80.2,86.7,82.3,77.6,99,83,58,29.96,29.83,12,3,14,0.00
2012-12-8,98.4,85.9,76.5,81.7,78.3,75.5,99,80,53,29.96,29.82,13,3,13,0.01
2012-12-9,97.7,84.9,76.3,79.8,75.5,73.0,95,75,50,29.89,29.79,14,3,14,0.00
2012-12-10,98.1,82.2,74.5,81.6,76.7,74.2,99,85,53,29.89,29.77,12,3,12,0.08
2012-12-11,96.6,84.1,73.9,81.8,76.4,69.6,99,80,50,29.89,29.77,13,3,13,0.07
2012-12-12,97.0,83.4,75.9,82.1,77.2,74.4,99,83,54,29.91,29.78,14,2,14,0.00
2012-12-13,95.7,82.5,74.3,82.0,77.9,74.1,99,87,60,29.90,29.81,13,3,13,0.02
2012-12-14,97.5,83.5,72.1,78.8,75.6,71.9,99,79,52,29.90,29.79,13,3,13,0.00
2012-12-15,97.0,81.6,68.0,76.8,72.7,67.7,99,78,43,29.86,29.72,10,2,10,0.00
2012-12-16,96.8,82.3,70.0,80.5,75.4,69.7,99,82,51,29.80,29.67,11,2,11,0.00
2012-12-17,96.8,85.4,72.9,83.0,79.4,72.6,99,83,65,29.80,29.67,11,2,11,0.00
2012-12-18,95.7,83.2,73.0,83.4,78.4,72.8,99,87,66,29.77,29.65,11,2,11,0.00
2012-12-19,97.0,84.5,72.0,83.6,78.5,71.7,99,84,63,29.76,29.67,10,2,10,0.00
2012-12-20,96.8,86.0,75.7,82.7,79.6,75.5,99,83,62,29.80,29.67,16,3,16,0.00
2012-12-21,97.9,85.0,72.9,83.6,78.1,72.4,99,82,59,29.78,29.64,13,3,13,0.00
2012-12-22,99.0,86.6,77.7,84.2,79.8,76.6,99,81,58,29.73,29.60,17,3,17,0.00
2012-12-23,99.7,85.4,76.8,88.2,81.6,76.6,99,90,62,29.76,29.65,13,2,13,0.12
2012-12-24,97.7,86.1,77.2,87.0,82.4,76.9,99,89,69,29.82,29.69,13,3,13,0.02
2012-12-25,99.3,84.9,75.4,86.1,80.6,75.1,99,88,64,29.79,29.67,13,2,13,0.07
2012-12-26,97.2,84.5,76.5,87.4,80.7,76.2,99,89,67,29.76,29.62,13,2,13,0.02
2012-12-27,100.2,86.6,74.3,85.5,80.7,74.1,99,84,60,29.78,29.65,12,3,12,0.00
2012-12-28,100.2,86.6,77.5,85.6,81.6,77.3,99,87,62,29.79,29.68,14,3,14,0.05
2012-12-29,101.5,86.6,75.2,85.6,80.6,75.0,99,84,58,29.78,29.66,13,2,13,0.00
2012-12-30,101.7,87.0,77.2,82.9,79.7,76.3,99,81,53,29.73,29.63,14,3,14,0.00
2012-12-31,91.8,79.9,75.0,85.8,79.1,74.8,99,97,75,29.77,29.65,13,2,13,0.37
2013-1-1,98.6,83.3,74.8,87.2,80.2,74.6,99,91,63,29.81,29.70,11,2,11,0.25